Location: Asheville, NC
(35.6000°N, 82.5500°W)
Time: 16:18:38
(UTC-05:00)

Vanguard 2 - Pass Details

Date: 14 February 2018
Orbit: 553 x 2939 km, 32.9° (Epoch: 20 February)

Event Time Altitude Azimuth Distance (km) Brightness Sun altitude
Rises 20:20:02 0° 248° (WSW) 4,404 12.4 -26.7°
Reaches altitude 10° 20:23:40 10° 245° (WSW) 3,048 11.3 -27.5°
Enters shadow 20:29:47 50° 193° (SSW) 1,048 8.1 -28.7°
Maximum altitude 20:30:23 53° 170° (S) 987 - -28.8°
Drops below altitude 10° 20:34:50 10° 93° (E) 2,042 - -29.7°
Sets 20:36:51 0° 88° (E) 2,834 - -30.1°
